Flag for U.S.A. Weather past 2 weeks in Minot, North Dakota, U.S.A.

Now
2 °F

Sunny.


Feels Like: -16 °F
Forecast: -10 / 18 °F
Wind: 13 mph from Northwest

Location: Minot International Airport

Current Time: Feb 26, 2015 at 6:56:12 PM

Latest Report: Feb 26, 2015 at 5:54 PM


Visibility: 10 mi

Pressure: 30.68 "Hg

Humidity: 60%

Dew point: -9 °F

Location of MinotLocation

Historic Weather in Minot — Graph

°F

Minot temperature yesterday

Maximum temperature yesterday: 11 °F (at 12:54 AM)
Minimum temperature yesterday: -8 °F (at 11:54 PM)
Average temperature yesterday: 3 °F

Past Weeks' High & Low Weather Summary

 TemperatureHumidityPressure
High33 °F (Feb 20, 1:54 AM)93% (Feb 20, 6:54 AM)30.88 "Hg (Feb 20, 6:54 AM)
Low-23 °F (Feb 22, 7:54 AM)50% (Feb 22, 2:54 PM)29.66 "Hg (Feb 20, 3:02 AM)
Average7 °F72%30.30 "Hg
* Reported Feb 11 4:54 PM — Feb 26 4:54 PM, Minot, Weather by CustomWeather, © 2015

Note: Actual official high and low records may vary slightly from our data, if they occured in-between our weather recording intervals... More about our weather records

Advertising

Minot weather history for previous 24 hours

 ConditionsComfort  
Time TempWeatherWind HumidityBarometerVisibility
4:54 PM
Thu, Feb 26
4 °FSunny.12 mph60%30.69 "Hg10 mi
3:54 PM5 °FSunny.15 mph60%30.69 "Hg10 mi
2:54 PM5 °FSunny.15 mph60%30.68 "Hg10 mi
1:54 PM5 °FSunny.14 mph57%30.69 "Hg10 mi
12:54 PM2 °FSunny.15 mph60%30.71 "Hg10 mi
11:54 AM0 °FSunny.14 mph59%30.72 "Hg10 mi
10:54 AM-4 °FSunny.9 mph61%30.73 "Hg10 mi
9:54 AM-8 °FSunny.13 mph64%30.72 "Hg10 mi
8:54 AM-11 °FSunny.15 mph67%30.72 "Hg10 mi
7:54 AM-13 °FSunny.16 mph67%30.71 "Hg10 mi
6:54 AM-13 °FClear.13 mph67%30.70 "Hg10 mi
5:54 AM-13 °FClear.15 mph70%30.69 "Hg10 mi
4:54 AM-12 °FClear.12 mph66%30.68 "Hg10 mi
3:54 AM-12 °FClear.13 mph70%30.67 "Hg10 mi
2:54 AMN/AClear.13 mphN/A30.66 "Hg10 mi
1:54 AM-9 °FClear.14 mph67%30.65 "Hg10 mi
12:54 AM-9 °FClear.16 mph70%30.63 "Hg10 mi
11:54 PM
Wed, Feb 25
-8 °FClear.17 mph71%30.62 "Hg10 mi
10:54 PM-7 °FClear.17 mph75%30.61 "Hg10 mi
8:54 PM-4 °FClear.18 mph71%30.58 "Hg10 mi
7:54 PM-2 °FClear.17 mphN/A30.55 "Hg10 mi
6:54 PM-1 °FClear.15 mphN/A30.53 "Hg10 mi
Weather by CustomWeather, © 2015

See weather overviewHow to use our weather pages